Regional Weather Roundup
Issued by NWS Upton, NY

Current Version | Previous Version | Graphics & Text | Print | Product List | Glossary Off
Versions: 1 2 3 4 5 6 7 8 9 10 11 12 13 14 15 16 17 18 19 20 21 22 23 24 25 26 27 28 29

000
ASUS41 KOKX 250005
RWROKX

REGIONAL WEATHER ROUNDUP
NATIONAL WEATHER SERVICE NEW YORK NY
800 PM EDT THU APR 24 2014

NOTE: "FAIR" INDICATES FEW OR NO CLOUDS BELOW 12,000 FEET WITH NO
SIGNIFICANT WEATHER AND/OR OBSTRUCTIONS TO VISIBILITY.

NYZ071-072-176-178-NJZ106-104-250100-
NEW YORK CITY METRO AREA


CITY           SKY/WX    TMP DP  RH WIND       PRES   REMARKS
CENTRAL PARK   CLEAR     58  10  15 NW8G22    29.97R
LAGUARDIA APRT PTCLDY    57  13  17 NW21G28   29.93R
KENNEDY INTL   PTCLDY    58   4  11 NW22G32   29.94R
NEWARK/LIBERTY PTCLDY    59  10  14 N15       29.95R
TETERBORO      CLEAR     58  10  15 NW16G23   29.94R
$$

NYZ177-179-078>081-250100-
LONG ISLAND NEW YORK

CITY           SKY/WX    TMP DP  RH WIND       PRES   REMARKS
FARMINGDALE    CLEAR     56  12  17 NW10G18   29.92R
ISLIP          PTCLDY    55  17  22 N8        29.90R
SHIRLEY        CLEAR     54  15  21 N15       29.91R
WESTHAMPTON    CLEAR     54  17  23 NW13G22   29.90R
MONTAUK POINT    N/A     54  28  36 NW13      29.86R
$$

NYZ052-065-067-250100-
HUDSON VALLEY

CITY           SKY/WX    TMP DP  RH WIND       PRES   REMARKS
WHITE PLAINS   CLEAR     53  12  19 NW13G18   29.92R
NEWBURGH       CLEAR     52  16  24 NW12G23   29.96R
MONTGOMERY     CLEAR     52  14  22 NW8       29.97R
POUGHKEEPSIE   CLEAR     54  15  21 NW10G16   29.95R
ALBANY         PTCLDY    52  11  19 NW16      29.95R
$$

NJZ001-105-106-008-010-013-015-019>022-104-250100-
NEW JERSEY

CITY           SKY/WX    TMP DP  RH WIND       PRES   REMARKS
NEWARK/LIBERTY PTCLDY    59  10  14 N15       29.95R
TETERBORO      CLEAR     58  10  15 NW16G23   29.94R
CALDWELL       CLEAR     55  14  19 NW7G20    29.96R
MORRISTOWN     CLEAR     55  12  18 NW7G18    29.96R
SOMERVILLE     CLEAR     56  11  16 NW14      29.95R
LINDEN         FAIR      59  15  17 NW12G21   29.97R
SUSSEX         CLEAR     55  15  20 NW8G16    29.98R
ANDOVER          N/A     52  14  22 N7        29.98R
TRENTON        CLEAR     56  12  17 NW12G18   29.98R
MILLVILLE      CLEAR     54  22  28 W7        29.99R
ATLANTIC CITY  CLEAR     56  18  22 W8        29.97R
WRIGHTSTOWN    CLEAR     56  15  20 NW6       29.96R
TOMS RIVER     CLEAR     57  16  19 NW6       29.97R
BELMAR         CLEAR     57  12  17 NW9       29.96R
$$

PAZ047>061-062-071-250100-
EASTERN PENNSYLVANIA

CITY           SKY/WX    TMP DP  RH WIND       PRES   REMARKS
PHILADELPHIA   PTCLDY    62  11  13 NW10      29.99R
ALLENTOWN      CLEAR     54  11  18 NW9G18    30.01R
SCRANTON       CLEAR     50  11  20 NW14      30.02R
$$

CTZ002-004>006-009-010-012-RIZ004-006-007-MAZ004-011-015-250100-
SOUTHERN NEW ENGLAND
 IN CT

CITY           SKY/WX    TMP DP  RH WIND       PRES   REMARKS
BRADLEY INTL   PTCLDY    54  15  21 NW17G26   29.87R
HARTFORD       CLEAR     55  14  19 NW16G23   29.88R
DANBURY        CLEAR     53  14  21 NW10G17   29.94R
WTRBRY/OXFORD  CLEAR     52  12  20 NW10G23   29.94R
BRIDGEPORT     CLEAR     56  13  18 NW15G24   29.91R
MERIDEN        CLEAR     54  13  19 NW15G26   29.89R
NEW HAVEN      CLEAR     56  15  20 NW10G26   29.90R
CHESTER        FAIR      54  16  22 NW9G16    29.87R
GROTON         CLEAR     55  20  25 NW12G22   29.85R
WILLIMANTIC    CLEAR     54  19  25 NW13G25   29.86R

 IN RI

CITY           SKY/WX    TMP DP  RH WIND       PRES   REMARKS
PROVIDENCE     CLEAR     54  20  26 NW15G29   29.83R
BLOCK ISLAND   CLEAR     52  27  37 N7        29.84R
WESTERLY       CLEAR     55  19  24 NW9G18    29.84R

 IN MA

CITY           SKY/WX    TMP DP  RH WIND       PRES   REMARKS
BOSTON         PTCLDY    53  24  32 N16G32    29.84R
WORCESTER      CLEAR     48  19  31 NW16G28   29.84R
WESTFIELD      CLEAR     54  18  24 NW15      29.88R
PROVINCETOWN   CLEAR     46  34  61 MISG      29.81R
NANTUCKET      CLEAR     50  32  50 N18G29    29.79R
$$

ANZ330-335-338-340-345-350-353-355-250100-
COASTAL MARINE OBSERVATIONS


STATION/POSITION TIME  SKY/WX   TEMP    WIND        PRES    VSBY  WAVE
                                AIR SEA DIR/SP/G                  HT/PER
                 (UTC)          (F)     (DEG/KT/KT) (MB)    (MI)  (FT/S)
NY HARB ENTRANCE 0000            53 45  VRB 16/ 17  1013.2
4S FIRE IS       2300               45                N/A           2/ 4
23SW MTP         0000            49 44  290/ 16/ 17 1010.6          4/ 6
HUDSON CANYON    2300            48 46  280/ 16/ 19 1011.6          4/ 5
EXECUTION ROCKS  0000            56 46  330/ 14/ 21   N/A
WESTERN LI SOUND 0000            54     330/ 12/ 16   N/A           1/ 3
CENTRAL LI SOUND 2300            51 44  300/ 16/ 21   N/A           3/ 5
EASTERN LI SOUND NOT AVBL
ROBBINS REEF     0000            58     320/ 18/ 25   N/A
$$


>>>>>>>>>>>>>>>>>>>>>>>>>>>> KEY <<<<<<<<<<<<<<<<<<<<<<<<<<<
>                                                          <
>     SKY/WX - SKY CONDITION/PRESENT WEATHER               <
>     TMP    - TEMPERATURE IN FAHRENHEIT                   <
>     DP     - DEWPOINT IN FAHRENHEIT                      <
>     RH     - RELATIVE HUMIDITY IN PERCENT                <
>     WIND   - DIRECTION AND SPEED IN MPH                  <
>     PRES   - MEAN SEA LEVEL PRESSURE IN INCHES OF HG     <
>     WCI    - WIND CHILL INDEX                            <
>     VSB    - VISIBILITY IN MILES                         <
>     HX     - HEAT INDEX                                  <
>     TC     - TEMPERATURE IN CELSIUS                      <
>     VRB    - VARIABLE WIND DIRECTION                     <
>                                                          <
>>>>>>>>>>>>>>>>>>>>>>>>>>>> KEY <<<<<<<<<<<<<<<<<<<<<<<<<<<





USA.gov is the U.S. government's official web portal to all federal, state and local government web resources and services.